Waarnemingen

Advertentie
Mijn weer
Baltasound, Groot Brittannië (3002): temperatuur & dauwpunt: 26.03.2020 18:00:00 - 01.04.2020 18:00:00 (BST)Baltasound, Groot Brittannië (3002): temperatuur -20cm: 26.03.2020 18:00:00 - 01.04.2020 18:00:00 (BST)Baltasound, Groot Brittannië (3002): windsnelheid & windstoten: 26.03.2020 18:00:00 - 01.04.2020 18:00:00 (BST)Baltasound, Groot Brittannië (3002): windrichting: 26.03.2020 18:00:00 - 01.04.2020 18:00:00 (BST)Baltasound, Groot Brittannië (3002): luchtdruk: 26.03.2020 18:00:00 - 01.04.2020 18:00:00 (BST)Baltasound, Groot Brittannië (3002): zicht: 26.03.2020 18:00:00 - 01.04.2020 18:00:00 (BST)Baltasound, Groot Brittannië (3002): neerslag: 26.03.2020 18:00:00 - 01.04.2020 18:00:00 (BST)
Datum & Tijd tt [°C] td [°C] tt -20cm [°C] ff [km/u] ff [kn] fx [km/u] fx [kn] dd ppp [hPa] vv [km] rr [mm]
01.04.2020 18:00:00 6,6 0,8 - 44 24 63 34 WNW 1004,7 14 -
01.04.2020 17:00:00 7,1 1,7 - 46 25 65 35 W 1004,9 13 0,0
01.04.2020 16:00:00 7,3 2,0 - 48 26 67 36 WNW 1005,2 15 0,0
01.04.2020 15:00:00 7,3 2,0 - 50 27 67 36 WNW 1005,3 14 0,0
01.04.2020 14:00:00 7,1 1,7 - 46 25 70 38 WNW 1005,6 11 0,0
01.04.2020 13:00:00 7,4 1,4 - 50 27 68 37 W 1005,5 11 0,0
01.04.2020 12:00:00 8,2 2,8 - 48 26 67 36 W 1005,7 15 0,0
01.04.2020 11:00:00 8,4 2,7 - 44 24 68 37 W 1006,0 13 0,0
01.04.2020 10:00:00 7,6 4,2 5,7 42 23 72 39 WNW 1006,4 13 0,4
01.04.2020 09:00:00 7,8 6,3 - 42 23 76 41 W 1006,7 7 0,6
01.04.2020 08:00:00 7,6 6,4 - 54 29 78 42 WZW 1007,4 9 0,2
01.04.2020 07:00:00 7,3 6,4 - 50 27 65 35 WZW 1008,5 3,2 0,6
01.04.2020 06:00:00 7,1 5,9 - 46 25 65 35 WZW 1009,9 4,0 0,6
01.04.2020 05:00:00 7,4 4,9 - 46 25 59 32 WZW 1010,9 10 0,0
01.04.2020 04:00:00 7,3 4,6 - 46 25 63 34 WZW 1013,2 10 0,0
01.04.2020 03:00:00 7,2 3,8 - 46 25 61 33 WZW 1014,6 11 0,0
01.04.2020 02:00:00 7,3 2,7 - 42 23 59 32 W 1015,9 15 0,0
01.04.2020 01:00:00 7,4 3,0 - 46 25 61 33 W 1017,1 13 0,0
01.04.2020 00:00:00 7,5 4,3 - 37 20 50 27 W 1018,4 11 0,0
31.03.2020 23:00:00 7,4 4,7 - 31 17 50 27 W 1019,3 9 0,0
31.03.2020 22:00:00 7,5 5,3 - 34 18 48 26 W 1020,2 8 0,0
31.03.2020 21:00:00 7,7 5,7 - 37 20 50 27 W 1021,0 7 0,0
31.03.2020 20:00:00 7,7 5,4 - 35 19 46 25 W 1021,6 8 0,0
31.03.2020 19:00:00 7,6 5,4 - 31 17 46 25 W 1022,2 8 0,0
31.03.2020 18:00:00 7,5 4,5 - 29 16 - - W 1022,7 9 0,0
31.03.2020 17:00:00 8,3 4,4 - 31 17 - - WNW 1023,2 9 -
31.03.2020 16:00:00 8,5 5,0 - 31 17 - - W 1023,8 12 0,0
31.03.2020 15:00:00 8,4 4,3 - 26 14 - - WNW 1024,3 11 0,0
31.03.2020 14:00:00 7,7 3,7 - 35 19 46 25 WNW 1024,9 12 0,0
31.03.2020 13:00:00 7,8 4,2 - 35 19 48 26 WNW 1025,2 12 0,0
31.03.2020 12:00:00 8,2 3,8 - 35 19 48 26 WNW 1025,5 12 0,0
31.03.2020 11:00:00 7,8 3,0 - 34 18 48 26 WNW 1026,1 15 0,0
31.03.2020 10:00:00 7,5 1,5 5,4 37 20 50 27 W 1026,5 26 0,0
31.03.2020 09:00:00 7,3 1,3 - 35 19 52 28 W 1026,8 24 0,0
31.03.2020 08:00:00 7,1 2,7 - 39 21 52 28 WNW 1026,9 17 0,0
31.03.2020 07:00:00 6,7 3,3 - 37 20 54 29 W 1027,1 15 0,0
31.03.2020 06:00:00 6,8 2,2 - 37 20 54 29 W 1027,6 18 0,0
31.03.2020 05:00:00 6,8 2,4 - 37 20 52 28 W 1027,9 16 0,0
31.03.2020 04:00:00 6,4 3,6 - 37 20 50 27 WNW 1028,5 5 0,0
31.03.2020 03:00:00 6,6 4,3 - 31 17 - - W 1029,1 11 0,0
31.03.2020 02:00:00 6,9 3,6 - 26 14 - - W 1029,8 14 0,0
31.03.2020 01:00:00 7,0 3,2 - 28 15 - - W 1030,3 14 0,0
31.03.2020 00:00:00 6,9 3,1 - 26 14 - - W 1030,8 13 0,0
30.03.2020 23:00:00 6,7 3,3 - 31 17 - - W 1031,5 11 0,0
30.03.2020 22:00:00 6,6 3,5 - 18 10 - - WZW 1032,2 12 0,0
30.03.2020 21:00:00 6,4 3,7 - 21 11 - - WZW 1032,6 15 0,0
30.03.2020 20:00:00 6,8 3,2 - 22 12 - - W 1033,0 15 0,0
30.03.2020 19:00:00 7,0 3,4 - 18 10 - - WZW 1033,3 14 0,0
30.03.2020 18:00:00 7,1 3,8 - 24 13 - - W 1033,7 7 0,0
30.03.2020 17:00:00 8,7 4,9 - 21 11 - - W 1034,1 16 0,0
30.03.2020 16:00:00 8,7 5,0 - 22 12 - - W 1034,6 17 0,0
30.03.2020 15:00:00 8,4 5,6 - 22 12 - - WNW 1035,1 16 0,2
30.03.2020 14:00:00 8,0 4,0 - 22 12 - - WNW 1035,7 9 0,0
30.03.2020 13:00:00 8,1 3,9 - 21 11 - - NW 1035,9 24 0,0
30.03.2020 12:00:00 7,5 4,2 - 18 10 - - NNW 1035,9 25 0,0
30.03.2020 11:00:00 7,3 4,0 - 26 14 - - NNW 1036,0 25 0,0
30.03.2020 10:00:00 7,1 3,8 5,0 24 13 - - N 1036,2 30 0,0
30.03.2020 09:00:00 6,8 4,3 - 31 17 - - NNW 1035,8 17 0,0
30.03.2020 08:00:00 6,2 4,4 - 31 17 - - NNW 1035,7 10 0,0
30.03.2020 07:00:00 6,4 3,8 - 34 18 46 25 NNW 1035,4 28 0,0
30.03.2020 06:00:00 6,4 3,6 - 37 20 54 29 NNW 1035,3 19 0,0
30.03.2020 05:00:00 6,4 3,6 - 41 22 63 34 NNW 1035,4 27 0,0
30.03.2020 04:00:00 6,1 3,4 - 37 20 65 35 NNW 1035,6 22 0,0
30.03.2020 03:00:00 6,0 3,5 - 41 22 67 36 NNW 1035,9 27 0,2
30.03.2020 02:00:00 6,3 2,7 - 46 25 67 36 NNW 1036,0 16 0,0
30.03.2020 01:00:00 6,5 3,0 - 46 25 63 34 NW 1036,6 20 0,0
30.03.2020 00:00:00 6,4 3,2 - 37 20 57 31 NW 1036,9 22 0,0
29.03.2020 23:00:00 6,1 2,7 - 39 21 55 30 NW 1037,4 18 0,0
29.03.2020 22:00:00 6,9 1,9 - 37 20 52 28 NW 1037,6 26 0,0
29.03.2020 21:00:00 6,5 2,3 - 29 16 46 25 NW 1038,0 29 0,0
29.03.2020 20:00:00 6,2 2,5 - 24 13 - - NW 1038,0 25 0,0
29.03.2020 19:00:00 6,4 2,3 - 28 15 - - NW 1038,2 25 0,0
29.03.2020 18:00:00 6,3 1,9 - 26 14 - - NNW 1038,4 27 0,0
29.03.2020 17:00:00 6,8 1,8 - 34 18 - - NW 1038,8 16 0,0
29.03.2020 16:00:00 6,7 1,7 - 35 19 - - WNW 1039,1 15 0,0
29.03.2020 15:00:00 6,4 0,2 - 34 18 - - NW 1039,5 35 0,0
29.03.2020 14:00:00 6,6 -0,4 - 34 18 46 25 NW 1040,1 35 0,0
29.03.2020 13:00:00 6,2 -0,6 - 34 18 48 26 NW 1040,4 35 0,0
29.03.2020 12:00:00 6,1 0,9 - 29 16 46 25 NW 1040,9 20 0,0
29.03.2020 11:00:00 5,5 0,2 - 29 16 48 26 NW 1041,0 21 0,0
29.03.2020 10:00:00 6,0 0,0 5,0 29 16 46 25 WNW 1041,1 30 0,0
29.03.2020 09:00:00 5,2 -0,8 - 31 17 - - WNW 1041,7 29 0,0
29.03.2020 08:00:00 3,0 0,8 - 18 10 - - W 1042,4 30 0,0
29.03.2020 07:00:00 3,6 -2,6 - 26 14 - - W 1043,1 50 0,0
29.03.2020 06:00:00 2,9 -3,5 - 24 13 - - W 1044,0 35 0,0
29.03.2020 05:00:00 1,0 -4,2 - 16 9 - - W 1044,7 45 0,0
29.03.2020 04:00:00 -1,0 -6,1 - 9 5 - - WNW 1045,0 50 0,0
29.03.2020 03:00:00 1,3 -6,5 - 21 11 - - NW 1045,7 50 0,0
29.03.2020 02:00:00 1,7 -5,5 - 16 9 - - NNW 1046,2 50 0,0
29.03.2020 01:00:00 1,8 -5,4 - 18 10 63 34 NNW 1046,2 40 0,0
29.03.2020 00:00:00 1,7 -5,4 - 21 11 - - N 1046,1 45 0,0
28.03.2020 23:00:00 1,5 -6,5 - 22 12 - - N 1046,0 40 0,0
28.03.2020 22:00:00 1,5 -5,3 - 24 13 - - N 1045,8 17 0,0
28.03.2020 21:00:00 1,7 -5,6 - 29 16 - - NNW 1045,6 40 0,0
28.03.2020 20:00:00 1,7 -6,0 - 24 13 - - N 1045,3 40 0,0
28.03.2020 19:00:00 1,7 -7,0 - 29 16 - - N 1044,7 45 0,0
28.03.2020 18:00:00 1,9 -6,7 - 29 16 46 25 N 1044,1 45 0,0
28.03.2020 17:00:00 2,2 -5,9 - 34 18 50 27 N 1043,8 45 0,0
28.03.2020 16:00:00 2,8 -4,8 - 34 18 54 29 N 1043,6 35 0,0
28.03.2020 15:00:00 1,9 -3,6 - 35 19 55 30 N 1043,4 35 0,0
28.03.2020 14:00:00 3,0 -4,6 - 39 21 55 30 N 1042,7 45 0,0
28.03.2020 13:00:00 2,6 -4,0 - 41 22 55 30 N 1042,4 29 0,0
28.03.2020 12:00:00 3,0 -3,4 - 35 19 54 29 N 1041,6 20 0,0
28.03.2020 11:00:00 2,8 -3,8 - 41 22 61 33 N 1040,9 26 0,0
28.03.2020 10:00:00 2,4 -2,0 5,7 39 21 59 32 N 1039,5 24 0,0
28.03.2020 09:00:00 0,0 -0,8 - 35 19 63 34 N 1038,9 3,0 0,0
28.03.2020 08:00:00 3,1 -2,8 - 34 18 46 25 NNW 1037,2 20 0,0
28.03.2020 07:00:00 2,1 -1,6 - 31 17 48 26 N 1036,2 27 0,0
28.03.2020 06:00:00 2,8 -3,0 - 26 14 - - N 1035,1 24 0,0
28.03.2020 05:00:00 3,0 -3,4 - 31 17 52 28 NNW 1034,5 40 0,0
28.03.2020 04:00:00 3,8 -2,3 - 29 16 - - NNW 1034,1 30 0,0
28.03.2020 03:00:00 2,3 -1,7 - 16 9 - - NW 1033,7 30 0,0
28.03.2020 02:00:00 3,0 0,0 - 21 11 - - NNW 1033,3 20 0,0
28.03.2020 01:00:00 3,8 0,8 - 22 12 46 25 NNW 1032,8 20 0,0
28.03.2020 00:00:00 4,6 1,7 - 29 16 - - NW 1032,4 24 0,0
27.03.2020 23:00:00 5,1 0,6 - 22 12 46 25 WNW 1031,8 17 0,0
27.03.2020 22:00:00 5,7 -0,8 - 34 18 48 26 WNW 1031,3 16 0,0
27.03.2020 21:00:00 5,8 0,2 - 29 16 - - WNW 1031,0 18 0,0
27.03.2020 20:00:00 6,1 -0,1 - 26 14 - - WNW 1030,8 19 0,0
27.03.2020 19:00:00 5,8 2,0 - 24 13 - - WNW 1030,3 9 0,0
27.03.2020 18:00:00 7,3 2,5 - 28 15 - - WNW 1029,6 20 0,0
27.03.2020 17:00:00 8,0 4,0 - 28 15 - - W 1029,5 19 0,0
27.03.2020 16:00:00 7,2 5,1 - 26 14 48 26 WNW 1029,2 28 0,0
27.03.2020 15:00:00 8,9 3,7 - 35 19 48 26 W 1029,1 28 0,0
27.03.2020 14:00:00 9,0 4,7 - 31 17 - - W 1029,2 16 0,0
27.03.2020 13:00:00 8,7 3,6 - 31 17 - - W 1029,1 14 0,0
27.03.2020 12:00:00 9,1 4,7 - 31 17 - - W 1029,0 27 0,0
27.03.2020 11:00:00 8,5 4,3 - 29 16 - - W 1028,5 14 0,0
27.03.2020 10:00:00 8,3 4,5 5,5 29 16 - - W 1028,1 30 0,0
27.03.2020 09:00:00 7,4 4,5 - 24 13 - - W 1027,7 19 0,0
27.03.2020 08:00:00 5,8 4,5 - 21 11 - - WZW 1027,6 20 0,0
27.03.2020 07:00:00 4,7 3,9 - 18 10 - - ZW 1027,3 16 0,0
27.03.2020 06:00:00 3,7 2,6 - 15 8 - - ZZW 1027,0 22 0,0
27.03.2020 05:00:00 3,3 2,5 - 15 8 - - ZW 1027,1 20 0,0
27.03.2020 04:00:00 4,1 3,0 - 15 8 - - ZZW 1027,1 35 0,0
27.03.2020 03:00:00 3,4 2,1 - 15 8 - - ZW 1027,2 30 0,0
27.03.2020 02:00:00 3,1 2,4 - 18 10 - - ZW 1027,4 23 0,0
27.03.2020 01:00:00 2,8 1,9 - 18 10 46 25 ZZW 1027,4 23 0,0
27.03.2020 00:00:00 2,7 1,5 - 16 9 - - ZW 1027,4 35 0,0
26.03.2020 23:00:00 4,4 2,9 - 16 9 - - ZW 1027,5 35 0,0
26.03.2020 22:00:00 3,9 2,7 - 16 9 - - ZZW 1027,7 25 0,0
26.03.2020 21:00:00 4,1 2,4 - 15 8 - - ZZW 1027,6 35 0,0
26.03.2020 20:00:00 4,7 2,6 - 16 9 - - ZW 1027,5 35 0,0
26.03.2020 19:00:00 6,8 3,7 - 16 9 - - ZW 1027,0 23 0,0
26.03.2020 18:00:00 - - - - - - - - - - -

tt = temperatuur
td = dauwpunt
tt -20cm = temperatuur -20cm
ff = windsnelheid
fx = windstoten
dd = windrichting
ppp = luchtdruk
vv = zicht
rr = neerslag

Weerstations in de omgeving